| time (UTC) | temp F | wind direction | speed MPH | gust MPH | rain 1hr in | rain 24hr in | rain mn in | humidity % | barometer mb |
| 20260502200017 | 57 | 180 | 3.0 | 6.0 | 0.00 | 0.17 | 0.17 | 89 | 1011.4 |
| 20260502195016 | 57 | 203 | 3.0 | 7.0 | 0.00 | 0.17 | 0.17 | 88 | 1011.5 |
| 20260502194016 | 57 | 203 | 3.0 | 8.0 | 0.00 | 0.17 | 0.17 | 88 | 1011.3 |
| 20260502193016 | 58 | 158 | 2.0 | 7.0 | 0.00 | 0.17 | 0.17 | 88 | 1011.2 |
| 20260502192019 | 58 | 180 | 3.0 | 7.0 | 0.00 | 0.17 | 0.17 | 88 | 1011.1 |
| 20260502191016 | 58 | 180 | 4.0 | 10.0 | 0.00 | 0.17 | 0.17 | 88 | 1011.1 |
| 20260502190036 | 58 | 180 | 3.0 | 9.0 | 0.00 | 0.17 | 0.17 | 88 | 1011.1 |
| 20260502185016 | 58 | 135 | 3.0 | 7.0 | 0.00 | 0.17 | 0.17 | 87 | 1011.3 |
| 20260502184018 | 58 | 135 | 4.0 | 8.0 | 0.00 | 0.17 | 0.17 | 88 | 1011.3 |
| 20260502183036 | 58 | 135 | 4.0 | 9.0 | 0.00 | 0.17 | 0.17 | 88 | 1011.4 |
| 20260502182016 | 58 | 135 | 4.0 | 12.0 | 0.00 | 0.17 | 0.17 | 88 | 1011.3 |
| 20260502181016 | 58 | 113 | 5.0 | 12.0 | 0.00 | 0.17 | 0.17 | 88 | 1011.2 |
| 20260502164036 | 58 | 113 | 3.0 | 5.0 | 0.00 | 0.17 | 0.17 | 91 | 1012.2 |
| 20260502163016 | 57 | 113 | 4.0 | 9.0 | 0.00 | 0.17 | 0.17 | 90 | 1012.2 |
| 20260502162016 | 57 | 90 | 3.0 | 8.0 | 0.00 | 0.17 | 0.17 | 90 | 1012.4 |
| 20260502161016 | 57 | 113 | 4.0 | 9.0 | 0.01 | 0.17 | 0.17 | 90 | 1012.6 |
| 20260502152039 | 56 | 90 | 5.0 | 12.0 | 0.17 | 0.17 | 0.17 | 88 | 1013.1 |
| 20260502151017 | 56 | 90 | 3.0 | 8.0 | 0.16 | 0.16 | 0.16 | 86 | 1013.2 |
| 20260502123015 | 66 | 135 | 5.0 | 9.0 | 0.00 | 0.00 | 0.00 | 55 | 1015.5 |
| 20260502122015 | 66 | 135 | 5.0 | 11.0 | 0.00 | 0.00 | 0.00 | 61 | 1015.6 |
| 20260502121015 | 66 | 135 | 6.0 | 11.0 | 0.00 | 0.00 | 0.00 | 63 | 1015.8 |
| 20260502115015 | 67 | 135 | 5.0 | 10.0 | 0.00 | 0.00 | 0.00 | 61 | 1015.9 |
| 20260502114017 | 68 | 135 | 5.0 | 10.0 | 0.00 | 0.00 | 0.00 | 63 | 1016.1 |
| 20260502113017 | 69 | 135 | 2.0 | 7.0 | 0.00 | 0.00 | 0.00 | 55 | 1016.2 |
| 20260502112015 | 68 | 158 | 2.0 | 5.0 | 0.00 | 0.00 | 0.00 | 63 | 1016.4 |
| 20260502111015 | 68 | 180 | 2.0 | 6.0 | 0.00 | 0.00 | 0.00 | 65 | 1016.5 |
| 20260502110015 | 68 | 225 | 4.0 | 8.0 | 0.00 | 0.00 | 0.00 | 66 | 1016.7 |
| 20260502105015 | 68 | 225 | 4.0 | 9.0 | 0.00 | 0.00 | 0.00 | 65 | 1016.8 |
| 20260502104037 | 68 | 203 | 3.0 | 7.0 | 0.00 | 0.00 | 0.00 | 63 | 1016.9 |
| 20260502103017 | 68 | 203 | 2.0 | 4.0 | 0.00 | 0.00 | 0.00 | 62 | 1016.9 |
| 20260502102017 | 67 | 180 | 2.0 | 4.0 | 0.00 | 0.00 | 0.00 | 66 | 1016.9 |
| 20260502101040 | 66 | 203 | 2.0 | 4.0 | 0.00 | 0.00 | 0.00 | 66 | 1017.2 |
| 20260502091017 | 62 | 158 | 1.0 | 3.0 | 0.00 | 0.00 | 0.00 | 75 | 1017.6 |
| 20260502071017 | 54 | 0.0 | 2.0 | 0.00 | 0.00 | 0.00 | 90 | 1018.5 | |
| 20260502070018 | 54 | 203 | 1.0 | 4.0 | 0.00 | 0.00 | 0.00 | 91 | 1018.4 |
| 20260502065017 | 54 | 225 | 1.0 | 2.0 | 0.00 | 0.00 | 0.00 | 91 | 1018.5 |
| 20260502064017 | 53 | 0.0 | 0.0 | 0.00 | 0.00 | 0.00 | 91 | 1018.5 | |
| 20260502063057 | 53 | 0.0 | 0.0 | 0.00 | 0.00 | 0.00 | 91 | 1018.5 | |
| 20260502062018 | 53 | 0.0 | 0.0 | 0.00 | 0.00 | 0.00 | 92 | 1018.6 | |
| 20260502061038 | 53 | 0.0 | 0.0 | 0.00 | 0.00 | 0.00 | 92 | 1018.5 | |
| 20260502060038 | 53 | 0.0 | 0.0 | 0.00 | 0.00 | 0.00 | 92 | 1018.6 | |
| 20260502055018 | 53 | 0.0 | 0.0 | 0.00 | 0.00 | 0.00 | 92 | 1018.6 | |
| 20260502054017 | 53 | 0.0 | 0.0 | 0.00 | 0.00 | 0.00 | 92 | 1018.5 | |
| 20260502053017 | 53 | 338 | 1.0 | 2.0 | 0.00 | 0.00 | 0.00 | 92 | 1018.5 |
| 20260502052017 | 53 | 0.0 | 0.0 | 0.00 | 0.00 | 0.00 | 92 | 1018.5 | |
| 20260502051016 | 52 | 0.0 | 0.0 | 0.00 | 0.00 | 0.00 | 92 | 1018.4 | |
| 20260502050018 | 52 | 293 | 1.0 | 2.0 | 0.00 | 0.00 | 0.00 | 92 | 1018.4 |
| 20260502045038 | 53 | 293 | 1.0 | 3.0 | 0.00 | 0.00 | 0.00 | 92 | 1018.6 |
| 20260502044016 | 53 | 270 | 1.0 | 3.0 | 0.00 | 0.00 | 0.00 | 92 | 1018.6 |
| 20260502043017 | 53 | 248 | 2.0 | 5.0 | 0.00 | 0.00 | 0.00 | 92 | 1018.5 |
| 20260502042018 | 53 | 270 | 1.0 | 4.0 | 0.00 | 0.00 | 0.00 | 92 | 1018.6 |
| 20260502041037 | 53 | 248 | 2.0 | 3.0 | 0.00 | 0.00 | 0.00 | 92 | 1018.6 |
| 20260502040016 | 53 | 293 | 1.0 | 2.0 | 0.00 | 0.00 | 0.00 | 92 | 1018.6 |
| 20260502035018 | 53 | 0.0 | 3.0 | 0.00 | 0.00 | 0.00 | 92 | 1018.6 | |
| 20260502034016 | 53 | 315 | 1.0 | 2.0 | 0.00 | 0.00 | 0.00 | 92 | 1018.7 |
| 20260502033018 | 53 | 315 | 2.0 | 5.0 | 0.00 | 0.00 | 0.00 | 92 | 1018.8 |
| 20260502032016 | 53 | 315 | 1.0 | 3.0 | 0.00 | 0.00 | 0.00 | 92 | 1018.9 |
| 20260502031016 | 53 | 293 | 2.0 | 4.0 | 0.00 | 0.00 | 0.00 | 92 | 1019.0 |
| 20260502030016 | 53 | 315 | 1.0 | 3.0 | 0.00 | 0.00 | 0.00 | 92 | 1019.0 |
| 20260502025017 | 53 | 315 | 2.0 | 4.0 | 0.00 | 0.00 | 0.00 | 92 | 1019.1 |
| 20260502024037 | 52 | 315 | 2.0 | 6.0 | 0.00 | 0.00 | 0.00 | 93 | 1019.1 |
| 20260502023016 | 52 | 315 | 1.0 | 4.0 | 0.00 | 0.00 | 0.00 | 92 | 1019.1 |
| 20260502022016 | 52 | 293 | 2.0 | 6.0 | 0.00 | 0.00 | 0.00 | 92 | 1019.2 |
| 20260502021018 | 52 | 293 | 1.0 | 3.0 | 0.00 | 0.00 | 0.00 | 93 | 1019.2 |
| 20260502020016 | 52 | 225 | 1.0 | 2.0 | 0.00 | 0.00 | 0.00 | 92 | 1019.3 |
| 20260502015038 | 52 | 270 | 1.0 | 4.0 | 0.00 | 0.00 | 0.00 | 92 | 1019.3 |
| 20260502014016 | 52 | 0.0 | 0.0 | 0.00 | 0.00 | 0.00 | 92 | 1019.3 | |
| 20260502013016 | 52 | 0.0 | 0.0 | 0.00 | 0.00 | 0.00 | 92 | 1019.4 | |
| 20260502012016 | 52 | 0.0 | 0.0 | 0.00 | 0.00 | 0.00 | 92 | 1019.5 | |
| 20260502011016 | 51 | 0.0 | 0.0 | 0.00 | 0.00 | 0.00 | 92 | 1019.6 | |
| 20260502010016 | 51 | 0.0 | 0.0 | 0.00 | 0.00 | 0.00 | 92 | 1019.8 | |
| 20260502005018 | 51 | 0.0 | 0.0 | 0.00 | 0.00 | 0.00 | 92 | 1019.8 | |
| 20260502004016 | 51 | 0.0 | 0.0 | 0.00 | 0.00 | 0.00 | 91 | 1019.8 | |
| 20260502003018 | 51 | 0.0 | 0.0 | 0.00 | 0.00 | 0.00 | 91 | 1019.8 | |
| 20260502002018 | 51 | 0.0 | 0.0 | 0.00 | 0.00 | 0.00 | 91 | 1019.9 | |
| 20260502001016 | 51 | 0.0 | 0.0 | 0.00 | 0.00 | 0.00 | 91 | 1019.9 | |
| 20260502000016 | 51 | 0.0 | 3.0 | 0.00 | 0.00 | 0.00 | 91 | 1020.1 | |
| 20260501235039 | 51 | 270 | 1.0 | 4.0 | 0.00 | 0.00 | 0.00 | 91 | 1020.2 |
| 20260501234018 | 51 | 293 | 1.0 | 4.0 | 0.00 | 0.00 | 0.00 | 91 | 1020.3 |
| 20260501233017 | 51 | 225 | 2.0 | 5.0 | 0.00 | 0.00 | 0.00 | 91 | 1020.4 |
| 20260501232038 | 51 | 248 | 2.0 | 5.0 | 0.00 | 0.00 | 0.00 | 91 | 1020.5 |
| 20260501231018 | 50 | 248 | 3.0 | 6.0 | 0.00 | 0.00 | 0.00 | 91 | 1020.4 |
| 20260501230017 | 50 | 225 | 2.0 | 4.0 | 0.00 | 0.00 | 0.00 | 89 | 1020.4 |
| 20260501225059 | 51 | 0.0 | 0.0 | 0.00 | 0.00 | 0.00 | 88 | 1020.4 | |
| 20260501224036 | 51 | 0.0 | 0.0 | 0.00 | 0.00 | 0.00 | 88 | 1020.4 | |
| 20260501223016 | 51 | 0.0 | 0.0 | 0.00 | 0.00 | 0.00 | 88 | 1020.4 | |
| 20260501222056 | 52 | 0.0 | 0.0 | 0.00 | 0.00 | 0.00 | 88 | 1020.4 | |
| 20260501221016 | 52 | 0.0 | 0.0 | 0.00 | 0.00 | 0.00 | 88 | 1020.5 | |
| 20260501220017 | 53 | 0.0 | 1.0 | 0.00 | 0.00 | 0.00 | 88 | 1020.5 | |
| 20260501215016 | 53 | 248 | 1.0 | 2.0 | 0.00 | 0.00 | 0.00 | 88 | 1020.5 |
| 20260501214017 | 53 | 225 | 2.0 | 4.0 | 0.00 | 0.00 | 0.00 | 88 | 1020.5 |
| 20260501213038 | 53 | 248 | 2.0 | 5.0 | 0.00 | 0.00 | 0.00 | 88 | 1020.4 |
| 20260501212016 | 54 | 248 | 3.0 | 5.0 | 0.00 | 0.00 | 0.00 | 88 | 1020.4 |
| 20260501211017 | 54 | 225 | 3.0 | 6.0 | 0.00 | 0.00 | 0.00 | 88 | 1020.3 |
| 20260501210017 | 54 | 225 | 4.0 | 10.0 | 0.00 | 0.00 | 0.00 | 88 | 1020.4 |
| 20260501205016 | 54 | 225 | 2.0 | 4.0 | 0.00 | 0.00 | 0.00 | 87 | 1020.5 |
| 20260501204017 | 54 | 225 | 2.0 | 4.0 | 0.00 | 0.00 | 0.00 | 86 | 1020.4 |
| 20260501203016 | 55 | 225 | 3.0 | 7.0 | 0.00 | 0.00 | 0.00 | 86 | 1020.3 |
| 20260501202056 | 55 | 248 | 3.0 | 7.0 | 0.00 | 0.00 | 0.00 | 86 | 1020.3 |
| 20260501201017 | 55 | 248 | 5.0 | 9.0 | 0.00 | 0.00 | 0.00 | 86 | 1020.3 |